• In Belgien
  • Länderverzeichnis
  • Für 7 Tage
  • Wassertemperatur
  • Satellitenkarten
  • Wetterkarte
  • Widgets
  • user-avatar
    Anmelden

    Stündliche Wetter Victoria

    Heute, 14 Dezember, Donnerstag

    Zeit Temperatur Niederschläge Wind Luftdruck Luftfeuchtigkeit
    00:00 +28°C° 0 mm 3 m/S 741 mmHg 27%
    01:00 +28°C° 0 mm 3 m/S 741 mmHg 28%
    02:00 +27°C° 0 mm 3 m/S 741 mmHg 31%
    03:00 +26°C° 0 mm 2 m/S 741 mmHg 33%
    04:00 +25°C° 0 mm 2 m/S 740 mmHg 36%
    05:00 +25°C° 0 mm 2 m/S 741 mmHg 37%
    06:00 +26°C° 0 mm 2 m/S 742 mmHg 39%
    07:00 +26°C° 0 mm 2 m/S 742 mmHg 41%
    08:00 +28°C° 0 mm 3 m/S 742 mmHg 37%
    09:00 +30°C° 0 mm 3 m/S 742 mmHg 33%
    10:00 +33°C° 0 mm 3 m/S 743 mmHg 30%
    11:00 +34°C° 0 mm 4 m/S 743 mmHg 30%
    12:00 +35°C° 0 mm 5 m/S 742 mmHg 30%
    13:00 +35°C° 0 mm 5 m/S 742 mmHg 29%
    14:00 +35°C° 0 mm 5 m/S 742 mmHg 30%
    15:00 +35°C° 0 mm 6 m/S 742 mmHg 31%
    16:00 +34°C° 0 mm 6 m/S 742 mmHg 32%
    17:00 +32°C° 0 mm 6 m/S 743 mmHg 39%
    18:00 +28°C° 0 mm 5 m/S 743 mmHg 47%
    19:00 +26°C° 0 mm 5 m/S 744 mmHg 55%
    20:00 +23°C° 0 mm 5 m/S 745 mmHg 57%
    21:00 +22°C° 0 mm 5 m/S 745 mmHg 60%
    22:00 +20°C° 0 mm 5 m/S 745 mmHg 62%
    23:00 +19°C° 0 mm 5 m/S 746 mmHg 65%

    Morgen, 15 Dezember, Freitag

    Zeit Temperatur Niederschläge Wind Luftdruck Luftfeuchtigkeit
    00:00 +17°C° 0 mm 5 m/S 746 mmHg 67%
    01:00 +17°C° 0 mm 4 m/S 746 mmHg 70%
    02:00 +17°C° 0 mm 4 m/S 746 mmHg 71%
    03:00 +16°C° 0 mm 3 m/S 746 mmHg 73%
    04:00 +14°C° 0 mm 3 m/S 746 mmHg 75%
    05:00 +16°C° 0 mm 3 m/S 746 mmHg 72%
    06:00 +17°C° 0 mm 3 m/S 746 mmHg 68%
    07:00 +18°C° 0 mm 3 m/S 747 mmHg 65%
    08:00 +20°C° 0 mm 2 m/S 747 mmHg 55%
    09:00 +24°C° 0 mm 2 m/S 747 mmHg 45%
    10:00 +26°C° 0 mm 2 m/S 746 mmHg 35%
    11:00 +28°C° 0 mm 2 m/S 746 mmHg 31%
    12:00 +29°C° 0 mm 3 m/S 746 mmHg 26%
    13:00 +30°C° 0 mm 3 m/S 746 mmHg 22%
    14:00 +31°C° 0 mm 3 m/S 745 mmHg 21%
    15:00 +32°C° 0 mm 4 m/S 745 mmHg 21%
    16:00 +33°C° 0 mm 4 m/S 744 mmHg 20%
    17:00 +30°C° 0 mm 3 m/S 745 mmHg 23%
    18:00 +29°C° 0 mm 2 m/S 745 mmHg 27%
    19:00 +27°C° 0 mm 2 m/S 745 mmHg 30%
    20:00 +26°C° 0 mm 2 m/S 745 mmHg 31%
    21:00 +24°C° 0 mm 2 m/S 746 mmHg 31%
    22:00 +23°C° 0 mm 2 m/S 746 mmHg 32%
    23:00 +21°C° 0 mm 2 m/S 746 mmHg 37%

    übermorgen, 16 Dezember, Samstag

    Zeit Temperatur Niederschläge Wind Luftdruck Luftfeuchtigkeit
    00:00 +20°C° 0 mm 2 m/S 746 mmHg 42%
    01:00 +19°C° 0 mm 2 m/S 746 mmHg 47%
    02:00 +18°C° 0 mm 2 m/S 746 mmHg 51%
    03:00 +17°C° 0 mm 2 m/S 746 mmHg 54%
    04:00 +17°C° 0 mm 2 m/S 746 mmHg 58%
    05:00 +18°C° 0 mm 2 m/S 747 mmHg 56%
    06:00 +19°C° 0 mm 2 m/S 747 mmHg 53%
    07:00 +21°C° 0 mm 2 m/S 748 mmHg 50%
    08:00 +25°C° 0 mm 1 m/S 748 mmHg 43%
    09:00 +28°C° 0 mm 1 m/S 748 mmHg 35%
    10:00 +30°C° 0 mm 1 m/S 748 mmHg 28%
    11:00 +31°C° 0 mm 2 m/S 748 mmHg 26%
    12:00 +32°C° 0 mm 2 m/S 747 mmHg 24%
    13:00 +34°C° 0 mm 3 m/S 747 mmHg 22%
    14:00 +35°C° 0 mm 3 m/S 747 mmHg 22%
    15:00 +35°C° 0 mm 3 m/S 747 mmHg 21%
    16:00 +35°C° 0 mm 3 m/S 746 mmHg 21%
    17:00 +34°C° 0 mm 3 m/S 747 mmHg 24%
    18:00 +31°C° 0 mm 3 m/S 747 mmHg 28%
    19:00 +29°C° 0 mm 2 m/S 747 mmHg 32%
    20:00 +27°C° 0 mm 3 m/S 748 mmHg 38%
    21:00 +25°C° 0 mm 4 m/S 748 mmHg 45%
    22:00 +22°C° 0 mm 5 m/S 748 mmHg 51%
    23:00 +21°C° 0 mm 5 m/S 748 mmHg 56%

    17 Dezember, Sonntag

    Zeit Temperatur Niederschläge Wind Luftdruck Luftfeuchtigkeit
    00:00 +20°C° 0 mm 4 m/S 748 mmHg 60%
    01:00 +19°C° 0 mm 4 m/S 748 mmHg 64%
    02:00 +19°C° 0 mm 4 m/S 748 mmHg 67%
    03:00 +19°C° 0 mm 3 m/S 748 mmHg 70%
    04:00 +18°C° 0 mm 3 m/S 748 mmHg 73%
    05:00 +19°C° 0 mm 3 m/S 748 mmHg 70%
    06:00 +20°C° 0 mm 3 m/S 748 mmHg 67%
    07:00 +21°C° 0 mm 3 m/S 749 mmHg 65%
    08:00 +25°C° 0 mm 2 m/S 748 mmHg 55%
    09:00 +28°C° 0 mm 2 m/S 748 mmHg 45%
    10:00 +31°C° 0 mm 2 m/S 748 mmHg 36%
    11:00 +32°C° 0 mm 2 m/S 748 mmHg 31%
    12:00 +34°C° 0 mm 1 m/S 747 mmHg 26%
    13:00 +35°C° 0 mm 1 m/S 747 mmHg 20%
    14:00 +37°C° 0 mm 2 m/S 746 mmHg 20%
    15:00 +37°C° 0 mm 3 m/S 746 mmHg 19%
    16:00 +37°C° 0 mm 3 m/S 746 mmHg 18%
    17:00 +35°C° 0 mm 3 m/S 746 mmHg 24%
    18:00 +33°C° 0 mm 4 m/S 746 mmHg 30%
    19:00 +30°C° 0 mm 4 m/S 746 mmHg 36%
    20:00 +28°C° 0 mm 4 m/S 746 mmHg 41%
    21:00 +27°C° 0 mm 4 m/S 746 mmHg 47%
    22:00 +25°C° 0 mm 4 m/S 746 mmHg 52%
    23:00 +24°C° 0 mm 3 m/S 746 mmHg 57%

    18 Dezember, Montag

    Zeit Temperatur Niederschläge Wind Luftdruck Luftfeuchtigkeit
    00:00 +22°C° 0 mm 3 m/S 746 mmHg 62%
    01:00 +22°C° 0 mm 3 m/S 746 mmHg 67%
    02:00 +22°C° 0 mm 3 m/S 746 mmHg 68%
    03:00 +22°C° 0 mm 3 m/S 746 mmHg 68%
    04:00 +22°C° 0 mm 3 m/S 746 mmHg 69%
    05:00 +24°C° 0 mm 3 m/S 746 mmHg 68%
    06:00 +25°C° 0 mm 4 m/S 746 mmHg 67%
    07:00 +26°C° 0 mm 5 m/S 746 mmHg 66%
    08:00 +28°C° 0 mm 4 m/S 746 mmHg 61%
    09:00 +30°C° 0 mm 4 m/S 746 mmHg 56%
    10:00 +32°C° 0 mm 4 m/S 746 mmHg 51%
    11:00 +34°C° 0 mm 3 m/S 745 mmHg 45%
    12:00 +35°C° 0 mm 3 m/S 745 mmHg 40%
    13:00 +37°C° 0 mm 3 m/S 744 mmHg 34%
    14:00 +37°C° 0 mm 3 m/S 743 mmHg 33%
    15:00 +37°C° 0 mm 3 m/S 743 mmHg 32%
    16:00 +37°C° 0 mm 3 m/S 742 mmHg 31%
    17:00 +36°C° 0 mm 3 m/S 742 mmHg 35%
    18:00 +34°C° 0 mm 3 m/S 742 mmHg 38%
    19:00 +33°C° 0 mm 3 m/S 742 mmHg 42%
    20:00 +31°C° 0 mm 3 m/S 741 mmHg 43%
    21:00 +30°C° 0 mm 3 m/S 741 mmHg 44%
    22:00 +30°C° 0 mm 4 m/S 741 mmHg 45%
    23:00 +30°C° 0 mm 5 m/S 740 mmHg 44%

    19 Dezember, Dienstag

    Zeit Temperatur Niederschläge Wind Luftdruck Luftfeuchtigkeit
    00:00 +29°C° 0 mm 5 m/S 738 mmHg 43%
    01:00 +29°C° 0 mm 6 m/S 737 mmHg 42%
    02:00 +30°C° 0 mm 6 m/S 737 mmHg 41%
    03:00 +30°C° 0 mm 6 m/S 737 mmHg 41%
    04:00 +30°C° 0 mm 6 m/S 737 mmHg 41%
    05:00 +30°C° 0 mm 5 m/S 737 mmHg 44%
    06:00 +30°C° 0 mm 4 m/S 738 mmHg 46%
    07:00 +30°C° 0 mm 3 m/S 738 mmHg 48%
    08:00 +29°C° 0,4 mm 3 m/S 738 mmHg 51%
    09:00 +29°C° 0,4 mm 4 m/S 738 mmHg 54%
    10:00 +29°C° 0,4 mm 4 m/S 738 mmHg 57%
    11:00 +32°C° 0 mm 6 m/S 738 mmHg 51%
    12:00 +34°C° 0 mm 7 m/S 738 mmHg 45%
    13:00 +37°C° 0 mm 9 m/S 737 mmHg 39%
    14:00 +37°C° 0,1 mm 8 m/S 737 mmHg 37%
    15:00 +37°C° 0,1 mm 8 m/S 737 mmHg 35%
    16:00 +36°C° 0,1 mm 7 m/S 737 mmHg 32%
    17:00 +35°C° 0 mm 6 m/S 737 mmHg 31%
    18:00 +33°C° 0 mm 5 m/S 737 mmHg 29%
    19:00 +32°C° 0 mm 4 m/S 738 mmHg 27%
    20:00 +30°C° 0 mm 4 m/S 738 mmHg 27%
    21:00 +28°C° 0 mm 4 m/S 738 mmHg 27%
    22:00 +26°C° 0 mm 4 m/S 739 mmHg 28%
    23:00 +25°C° 0 mm 3 m/S 739 mmHg 32%
    Mehr zeigen